Location: Munkebjergskolens Observatorium
(55.3864°N, 10.3987°E)
Time: 08:39:17
(UTC+02:00)

JY1SAT - Pass Details

Date: 08 April 2023
Orbit: 555 x 574 km, 97.6° (Epoch: 03 June)

Event Time Altitude Azimuth Distance (km) Brightness Sun altitude
Exits shadow 23:37:48 15° 242° (WSW) 1,579 ? -23.7°
Maximum altitude 23:39:24 18° 271° (W) 1,425 ? -23.8°
Drops below altitude 10° 23:42:14 10° 315° (NW) 1,884 ? -24.0°
Sets 23:44:59 0° 335° (NNW) 2,792 ? -24.2°
